Location: Kergonan
(48.2337°N, 4.5518°W)
Time: 18:56:27
(UTC+00:00)

Cosmos 1703 - Pass Details

Date: 18 January 2020
Orbit: 524 x 541 km, 82.5° (Epoch: 16 February)

Event Time Altitude Azimuth Distance (km) Brightness Sun altitude
Exits shadow 06:56:51 - 345° (NNW) 2,723 6.5 -10.7°
Rises 06:56:53 0° 345° (NNW) 2,710 6.5 -10.7°
Reaches altitude 10° 06:59:05 10° 340° (NNW) 1,811 5.6 -10.3°
Maximum altitude 07:02:56 49° 266° (W) 700 3.5 -9.7°
Drops below altitude 10° 07:06:44 10° 191° (S) 1,787 6.1 -9.2°
Sets 07:08:54 0° 186° (S) 2,670 7.0 -8.8°
